CW9785 Weather Reports


time (UTC)temp
C
wind
direction
speed
KPH
gust
KPH
rain 1hr
cm
rain 24hr
cm
rain mn
cm
humidity
%
barometer
mb
20260906201017 33 156 14.5 27.4 0.00 0.13 0.00 45 1015.4
20260906200517 33 265 9.7 27.4 0.00 0.13 0.00 45 1015.2
20260906200032 33 137 14.5 29.0 0.00 0.13 0.00 45 1015.3
20260906195518 33 153 9.7 33.8 0.00 0.13 0.00 46 1015.2
20260906195017 32 190 14.5 33.8 0.00 0.13 0.00 46 1015.4
20260906194531 32 147 11.3 27.4 0.00 0.13 0.00 48 1015.4
20260906194014 32 169 12.9 24.1 0.00 0.13 0.00 47 1015.6
20260906193515 32 175 11.3 24.1 0.00 0.13 0.00 47 1015.7
20260906193030 32 96 11.3 30.6 0.00 0.13 0.00 48 1015.8
20260906192519 32 142 16.1 30.6 0.00 0.13 0.00 49 1016.0
20260906192017 32 119 9.7 20.9 0.00 0.13 0.00 52 1016.1
20260906191531 31 109 9.7 24.1 0.00 0.13 0.00 51 1016.2
20260906191018 31 178 11.3 24.1 0.00 0.13 0.00 52 1016.2
20260906190518 31 69 12.9 19.3 0.00 0.13 0.00 53 1016.3
20260906190035 31 69 4.8 16.1 0.00 0.13 0.00 53 1016.4
20260906185519 31 155 8.0 19.3 0.00 0.13 0.00 54 1016.5
20260906185016 31 80 6.4 19.3 0.00 0.13 0.00 56 1016.6
20260906184530 30 105 8.0 19.3 0.00 0.13 0.00 56 1016.7
20260906184014 30 103 9.7 19.3 0.00 0.13 0.00 56 1016.9
20260906183514 30 65 6.4 16.1 0.00 0.13 0.00 57 1017.0
20260906183042 30 74 6.4 16.1 0.00 0.13 0.00 57 1017.2
20260906182514 30 121 6.4 19.3 0.00 0.13 0.00 57 1017.3
20260906182017 30 196 8.0 22.5 0.00 0.13 0.00 56 1017.3
20260906181531 30 66 12.9 22.5 0.00 0.13 0.00 58 1017.3
20260906181017 29 46 3.2 20.9 0.00 0.13 0.00 59 1017.4
20260906180519 29 110 11.3 20.9 0.00 0.13 0.00 59 1017.5
20260906180031 28 113 11.3 20.9 0.00 0.13 0.00 60 1017.5
20260906175516 28 103 11.3 19.3 0.00 0.13 0.00 63 1017.6
20260906175016 28 80 8.0 17.7 0.00 0.13 0.00 63 1017.7
20260906174532 28 96 8.0 16.1 0.00 0.13 0.00 65 1017.8
20260906174014 28 92 4.8 16.1 0.00 0.13 0.00 64 1017.9
20260906173514 28 91 4.8 19.3 0.00 0.13 0.00 65 1018.0
20260906173028 28 99 4.8 19.3 0.00 0.13 0.00 65 1018.2
20260906172515 28 84 6.4 17.7 0.00 0.13 0.00 64 1018.4
20260906172015 28 90 6.4 17.7 0.00 0.13 0.00 65 1018.4
20260906171528 28 43 4.8 17.7 0.00 0.13 0.00 64 1018.5
20260906171016 28 75 4.8 16.1 0.00 0.13 0.00 65 1018.5
20260906170516 28 122 6.4 17.7 0.00 0.13 0.00 65 1018.6
20260906170033 28 61 6.4 17.7 0.00 0.13 0.00 65 1018.7
20260906165516 28 64 6.4 19.3 0.00 0.13 0.00 66 1018.8
20260906165017 28 36 6.4 19.3 0.00 0.13 0.00 65 1018.8
20260906164532 28 109 8.0 20.9 0.00 0.13 0.00 65 1018.9
20260906164015 28 148 8.0 20.9 0.00 0.13 0.00 65 1019.0
20260906163516 28 54 8.0 22.5 0.00 0.13 0.00 64 1019.0
20260906163030 28 61 8.0 24.1 0.00 0.13 0.00 64 1019.0
20260906162514 28 37 11.3 24.1 0.00 0.13 0.00 65 1019.1
20260906162018 28 70 9.7 20.9 0.00 0.13 0.00 65 1019.1
20260906161533 27 97 8.0 22.5 0.00 0.13 0.00 66 1019.0
20260906161013 27 121 9.7 22.5 0.00 0.13 0.00 66 1018.9
20260906160516 27 40 12.9 32.2 0.00 0.13 0.00 67 1018.9
20260906160030 27 46 16.1 32.2 0.00 0.13 0.00 66 1018.9
20260906155517 27 19 19.3 30.6 0.00 0.13 0.00 66 1018.8
20260906155017 28 5 19.3 30.6 0.00 0.13 0.00 66 1018.8
20260906154529 27 108 11.3 30.6 0.00 0.13 0.00 66 1018.9
20260906154018 27 87 8.0 25.7 0.00 0.13 0.00 69 1018.9
20260906153517 27 52 11.3 37.0 0.00 0.13 0.00 69 1018.9
20260906153031 27 38 17.7 37.0 0.00 0.13 0.00 68 1018.9
20260906152513 27 38 12.9 29.0 0.00 0.13 0.00 69 1018.8
20260906152014 27 36 14.5 25.7 0.00 0.13 0.00 69 1018.8
20260906151529 27 76 11.3 30.6 0.00 0.13 0.00 70 1018.8
20260906151016 26 14 16.1 30.6 0.00 0.13 0.00 71 1018.8
20260906150516 26 19 16.1 29.0 0.00 0.13 0.00 71 1018.8
20260906150039 26 57 11.3 27.4 0.00 0.13 0.00 72 1018.9
20260906145516 26 46 12.9 30.6 0.00 0.13 0.00 73 1018.8
20260906145017 25 43 19.3 30.6 0.00 0.13 0.00 73 1018.8
20260906144530 25 34 14.5 29.0 0.00 0.13 0.00 73 1018.8
20260906144014 25 22 11.3 27.4 0.00 0.13 0.00 74 1018.7
20260906143515 25 46 17.7 25.7 0.00 0.13 0.00 74 1018.7
20260906143028 25 22 12.9 25.7 0.00 0.13 0.00 74 1018.7
20260906142513 25 9 14.5 27.4 0.00 0.13 0.00 74 1018.7
20260906142018 24 42 16.1 27.4 0.00 0.13 0.00 74 1018.7
20260906141529 24 51 9.7 29.0 0.00 0.13 0.00 74 1018.7
20260906141015 24 32 16.1 29.0 0.00 0.13 0.00 74 1018.6
20260906140516 23 53 14.5 22.5 0.00 0.13 0.00 75 1018.5
20260906140028 23 37 11.3 30.6 0.00 0.13 0.00 76 1018.5
20260906135514 23 26 6.4 30.6 0.00 0.13 0.00 77 1018.5
20260906135014 23 11 20.9 30.6 0.00 0.13 0.00 80 1018.4
20260906134540 22 43 4.8 8.0 0.00 0.13 0.00 81 1018.0
20260906134014 22 52 0.0 4.8 0.00 0.13 0.00 81 1017.7
20260906133515 22 45 1.6 8.0 0.00 0.13 0.00 82 1017.5
20260906133048 22 64 1.6 11.3 0.00 0.13 0.00 84 1017.4
20260906132514 22 143 4.8 11.3 0.00 0.13 0.00 85 1017.3
20260906132017 21 168 3.2 6.4 0.00 0.13 0.00 86 1017.2
20260906131530 21 218 3.2 8.0 0.00 0.13 0.00 88 1017.2
20260906131021 21 182 3.2 9.7 0.00 0.13 0.00 88 1017.1
20260906130514 21 170 3.2 8.0 0.00 0.13 0.00 89 1017.0
20260906130031 21 221 3.2 6.4 0.00 0.13 0.00 90 1016.9
20260906125521 21 182 3.2 6.4 0.00 0.13 0.00 90 1016.8
20260906125020 20 182 1.6 6.4 0.00 0.13 0.00 91 1016.7
20260906124527 20 182 1.6 6.4 0.00 0.13 0.00 91 1016.7
20260906124017 20 182 1.6 6.4 0.00 0.13 0.00 91 1016.6
20260906123515 20 182 1.6 6.4 0.00 0.13 0.00 91 1016.5
20260906123032 20 182 1.6 6.4 0.00 0.13 0.00 92 1016.4
20260906122513 20 182 1.6 6.4 0.00 0.13 0.00 92 1016.3
20260906122016 20 182 3.2 6.4 0.00 0.13 0.00 92 1016.2
20260906121527 20 182 3.2 4.8 0.00 0.13 0.00 92 1016.2
20260906121015 20 182 3.2 4.8 0.00 0.13 0.00 92 1016.1
20260906120515 20 182 3.2 4.8 0.00 0.13 0.00 92 1016.1
20260906120027 20 182 1.6 6.4 0.00 0.13 0.00 93 1016.1
20260906115517 20 182 1.6 6.4 0.00 0.13 0.00 93 1016.1
20260906115015 20 182 3.2 4.8 0.00 0.13 0.00 93 1016.1
20260906114529 20 182 3.2 4.8 0.00 0.13 0.00 93 1016.0
20260906114014 20 182 1.6 4.8 0.00 0.13 0.00 93 1015.9
20260906113516 20 182 1.6 4.8 0.00 0.13 0.00 93 1015.9
20260906113034 20 182 1.6 4.8 0.00 0.13 0.00 93 1015.8
20260906112515 20 182 1.6 6.4 0.00 0.13 0.00 93 1015.7
20260906112014 20 182 1.6 6.4 0.00 0.13 0.00 93 1015.6
20260906111538 20 182 3.2 6.4 0.00 0.13 0.00 93 1015.6
20260906111015 20 182 3.2 6.4 0.00 0.13 0.00 93 1015.5
20260906110513 20 182 1.6 4.8 0.00 0.13 0.00 93 1015.5
20260906110032 20 182 1.6 4.8 0.00 0.13 0.00 93 1015.6
20260906105515 20 182 1.6 6.4 0.00 0.13 0.00 93 1015.6
20260906105015 20 182 3.2 6.4 0.00 0.13 0.00 93 1015.5
20260906104536 20 182 1.6 6.4 0.00 0.13 0.00 93 1015.4
20260906104014 20 182 1.6 4.8 0.00 0.13 0.00 93 1015.4
20260906103512 20 182 1.6 8.0 0.00 0.13 0.00 93 1015.3
20260906103033 20 182 3.2 8.0 0.00 0.13 0.00 93 1015.3
20260906102514 20 186 3.2 11.3 0.00 0.13 0.00 93 1015.3
20260906102015 20 186 4.8 11.3 0.00 0.13 0.00 93 1015.3
20260906101531 20 205 6.4 11.3 0.00 0.13 0.00 93 1015.4
20260906101015 20 171 6.4 9.7 0.00 0.13 0.00 93 1015.5
20260906100515 20 188 4.8 8.0 0.00 0.13 0.00 92 1015.5
20260906100026 20 190 3.2 8.0 0.00 0.13 0.00 92 1015.5
20260906095514 20 167 4.8 11.3 0.00 0.13 0.00 92 1015.6
20260906095015 20 167 4.8 11.3 0.00 0.13 0.00 92 1015.5
20260906094525 20 169 3.2 9.7 0.00 0.13 0.00 92 1015.5
20260906094016 20 169 4.8 8.0 0.00 0.13 0.00 92 1015.6
20260906093516 20 146 3.2 6.4 0.00 0.13 0.00 92 1015.6
20260906093024 20 146 3.2 6.4 0.00 0.13 0.00 92 1015.6
20260906092515 20 194 1.6 6.4 0.00 0.13 0.00 92 1015.6
20260906092012 20 194 1.6 6.4 0.00 0.13 0.00 92 1015.7
20260906091528 20 194 1.6 8.0 0.00 0.13 0.00 92 1015.7
20260906091015 20 194 1.6 9.7 0.00 0.13 0.00 92 1015.7
20260906090515 20 167 3.2 9.7 0.00 0.13 0.00 92 1015.7
20260906090027 20 178 1.6 4.8 0.00 0.13 0.00 92 1015.7
20260906085514 20 178 3.2 8.0 0.00 0.13 0.00 92 1015.7
20260906085014 20 178 1.6 8.0 0.00 0.13 0.00 91 1015.7
20260906084526 20 171 3.2 9.7 0.00 0.13 0.00 91 1015.7
20260906084015 20 179 3.2 9.7 0.00 0.13 0.00 91 1015.5
20260906083514 20 196 4.8 8.0 0.00 0.13 0.00 90 1015.5
20260906083024 20 169 3.2 8.0 0.00 0.13 0.00 90 1015.5
20260906082511 20 186 1.6 6.4 0.00 0.13 0.00 90 1015.5
20260906082013 21 186 3.2 6.4 0.00 0.13 0.00 90 1015.5
20260906081523 21 186 1.6 6.4 0.00 0.13 0.00 90 1015.5
20260906081013 21 186 1.6 6.4 0.00 0.13 0.00 89 1015.5
20260906080517 21 186 1.6 11.3 0.00 0.13 0.00 89 1015.5
20260906080025 21 169 4.8 11.3 0.00 0.13 0.00 88 1015.5
20260906075515 21 161 4.8 9.7 0.00 0.13 0.00 88 1015.5
20260906075012 21 180 3.2 9.7 0.00 0.13 0.00 87 1015.6
20260906074528 21 179 3.2 9.7 0.00 0.13 0.00 87 1015.5
20260906074016 21 162 4.8 11.3 0.00 0.13 0.00 86 1015.5
20260906073513 21 182 3.2 11.3 0.00 0.13 0.00 85 1015.6
20260906073032 22 164 3.2 9.7 0.00 0.13 0.00 84 1015.5
20260906072512 22 209 4.8 8.0 0.00 0.13 0.00 83 1015.5
20260906072011 22 150 3.2 8.0 0.00 0.13 0.00 82 1015.4
20260906071526 23 155 3.2 9.7 0.00 0.13 0.00 80 1015.4
20260906071013 23 155 3.2 12.9 0.00 0.13 0.00 78 1015.4
20260906070511 23 169 4.8 12.9 0.00 0.13 0.00 76 1015.4
20260906070025 25 191 6.4 12.9 0.00 0.13 0.00 74 1015.3
20260906065511 25 163 3.2 11.3 0.00 0.13 0.00 72 1015.2
20260906065012 25 158 3.2 11.3 0.00 0.13 0.00 69 1015.2
20260906064523 25 178 4.8 12.9 0.00 0.13 0.00 67 1015.2
20260906064014 25 159 4.8 12.9 0.00 0.13 0.00 66 1015.2
20260906063513 25 188 4.8 11.3 0.00 0.13 0.00 66 1015.2
20260906063023 25 148 4.8 14.5 0.00 0.13 0.00 67 1015.2
20260906062512 25 171 6.4 14.5 0.00 0.13 0.00 67 1015.3
20260906062013 25 188 8.0 14.5 0.00 0.13 0.00 67 1015.3
20260906061520 25 159 6.4 12.9 0.00 0.13 0.00 68 1015.2
20260906061011 25 173 3.2 12.9 0.00 0.13 0.00 68 1015.3
20260906060513 25 163 6.4 14.5 0.00 0.13 0.00 68 1015.5
20260906060020 25 144 6.4 14.5 0.00 0.13 0.00 67 1015.5
20260906055511 25 128 4.8 20.9 0.00 0.13 0.00 67 1015.4
20260906055011 26 167 4.8 20.9 0.00 0.13 0.00 67 1015.4
20260906054523 26 138 9.7 20.9 0.00 0.13 0.00 66 1015.4
20260906054012 26 107 8.0 20.9 0.00 0.13 0.00 66 1015.4
20260906053513 26 178 9.7 20.9 0.00 0.13 0.00 65 1015.4
20260906053021 26 135 8.0 17.7 0.00 0.13 0.00 65 1015.4
20260906052515 26 109 9.7 17.7 0.00 0.13 0.00 65 1015.3
20260906052013 26 162 12.9 19.3 0.00 0.13 0.00 65 1015.3
20260906051517 26 137 9.7 22.5 0.00 0.13 0.00 65 1015.2
20260906051020 26 157 11.3 22.5 0.00 0.13 0.00 65 1015.1
20260906050511 26 113 9.7 19.3 0.00 0.13 0.00 66 1015.1
20260906050023 26 109 11.3 17.7 0.00 0.13 0.00 66 1015.0
20260906045512 26 145 9.7 16.1 0.00 0.13 0.13 67 1015.1
20260906045010 25 124 9.7 16.1 0.00 0.13 0.13 67 1015.1
20260906044521 25 139 9.7 14.5 0.00 0.13 0.13 68 1015.1
20260906044012 25 151 8.0 12.9 0.00 0.13 0.13 68 1015.1
20260906043515 25 122 6.4 14.5 0.00 0.13 0.13 68 1015.2
20260906043020 25 144 6.4 14.5 0.00 0.13 0.13 68 1015.1
20260906042512 25 130 6.4 14.5 0.00 0.13 0.13 68 1015.0
20260906042014 26 138 8.0 14.5 0.00 0.13 0.13 68 1015.1
20260906041524 26 169 4.8 12.9 0.00 0.13 0.13 68 1015.1
20260906041016 26 174 6.4 14.5 0.00 0.13 0.13 67 1015.1
20260906040515 26 116 6.4 16.1 0.00 0.13 0.13 67 1015.1
20260906040021 26 157 8.0 16.1 0.00 0.13 0.13 67 1015.3
20260906035510 26 144 9.7 16.1 0.00 0.13 0.13 68 1015.2
20260906035012 25 138 6.4 16.1 0.00 0.13 0.13 68 1015.2
20260906034518 25 171 6.4 14.5 0.00 0.13 0.13 68 1015.1
20260906034011 25 153 6.4 16.1 0.00 0.13 0.13 68 1015.2
20260906033511 25 134 8.0 16.1 0.00 0.13 0.13 69 1015.3
20260906033019 25 131 6.4 14.5 0.00 0.13 0.13 69 1015.3
20260906032509 25 144 8.0 14.5 0.00 0.13 0.13 68 1015.3
20260906032011 26 173 4.8 16.1 0.00 0.13 0.13 68 1015.2
20260906031519 26 138 6.4 16.1 0.00 0.13 0.13 68 1015.2
20260906031013 26 170 6.4 16.1 0.00 0.13 0.13 68 1015.1
20260906030512 26 156 6.4 16.1 0.00 0.13 0.13 69 1015.0
20260906030020 26 128 6.4 14.5 0.00 0.13 0.13 69 1014.9
20260906025512 26 145 8.0 14.5 0.00 0.13 0.13 68 1015.0
20260906025011 26 146 6.4 14.5 0.00 0.13 0.13 68 1014.9
20260906024517 26 147 9.7 14.5 0.00 0.13 0.13 68 1014.8
20260906024013 26 142 6.4 17.7 0.00 0.13 0.13 67 1014.6
20260906023513 26 172 6.4 24.1 0.00 0.13 0.13 67 1014.5
20260906023021 26 155 9.7 24.1 0.00 0.13 0.13 67 1014.4
20260906022510 26 150 9.7 22.5 0.00 0.13 0.13 66 1014.3
20260906022010 26 175 11.3 20.9 0.00 0.13 0.13 66 1014.3
20260906021517 26 196 11.3 20.9 0.00 0.13 0.13 66 1014.2
20260906021019 26 175 9.7 20.9 0.00 0.13 0.13 66 1014.2
20260906020511 26 162 11.3 17.7 0.00 0.13 0.13 66 1014.2
20260906020018 26 155 6.4 22.5 0.00 0.13 0.13 66 1014.2
20260906015511 27 185 9.7 22.5 0.00 0.13 0.13 66 1014.0
20260906015011 27 134 11.3 19.3 0.00 0.13 0.13 66 1013.9
20260906014521 27 163 11.3 22.5 0.00 0.13 0.13 65 1013.9
20260906014011 27 150 11.3 22.5 0.00 0.13 0.13 65 1013.8
20260906013511 27 153 12.9 24.1 0.00 0.13 0.13 64 1013.9
20260906013026 27 144 14.5 24.1 0.00 0.13 0.13 64 1014.0
20260906012510 27 155 11.3 24.1 0.00 0.13 0.13 63 1013.8
20260906012010 28 138 12.9 32.2 0.00 0.13 0.13 63 1013.7
20260906011519 28 112 14.5 32.2 0.00 0.13 0.13 62 1013.8
20260906011011 28 126 12.9 25.7 0.00 0.13 0.13 62 1013.9
20260906010511 28 98 16.1 25.7 0.00 0.13 0.13 61 1013.9
20260906010018 28 78 12.9 22.5 0.00 0.13 0.13 61 1013.8
20260906005513 28 155 14.5 25.7 0.00 0.13 0.13 61 1013.8
20260906005012 28 180 14.5 25.7 0.00 0.13 0.13 62 1013.9
20260906004518 28 184 14.5 25.7 0.00 0.13 0.13 63 1013.9
20260906004012 28 130 11.3 27.4 0.00 0.13 0.13 63 1014.1
20260906003511 28 107 14.5 27.4 0.00 0.13 0.13 63 1014.1
20260906003014 28 155 12.9 27.4 0.00 0.13 0.13 62 1014.1
20260906002510 28 121 16.1 27.4 0.00 0.13 0.13 62 1014.0
20260906002010 28 159 12.9 29.0 0.00 0.13 0.13 62 1014.2
20260906001513 28 109 16.1 30.6 0.00 0.13 0.13 62 1014.2
20260906001009 28 166 16.1 37.0 0.00 0.13 0.13 61 1014.4
20260906000512 29 119 19.3 37.0 0.00 0.13 0.13 61 1014.5
20260906000016 29 119 17.7 35.4 0.00 0.13 0.13 60 1014.5
20260905235507 29 123 16.1 37.0 0.00 0.13 0.13 60 1014.5
20260905235008 29 105 20.9 37.0 0.00 0.13 0.13 60 1014.4
20260905234515 29 70 19.3 32.2 0.00 0.13 0.13 59 1014.4
20260905234010 28 121 17.7 32.2 0.00 0.13 0.13 58 1014.3
20260905233511 28 144 17.7 32.2 0.00 0.13 0.13 59 1014.3
20260905233017 28 85 14.5 32.2 0.00 0.13 0.13 60 1014.3
20260905232512 29 71 19.3 32.2 0.00 0.13 0.13 60 1014.1
20260905232008 29 86 16.1 40.2 0.00 0.13 0.13 60 1014.0
20260905231518 30 94 19.3 40.2 0.00 0.13 0.13 59 1013.9
20260905231010 29 96 20.9 35.4 0.00 0.13 0.13 60 1013.8
20260905230511 29 115 17.7 37.0 0.00 0.13 0.13 61 1013.7
20260905230016 29 94 17.7 43.5 0.00 0.13 0.13 61 1013.8
20260905225507 30 109 17.7 43.5 0.00 0.13 0.13 60 1013.9
20260905225008 30 86 16.1 40.2 0.00 0.13 0.13 58 1013.8
20260905224513 30 98 19.3 40.2 0.00 0.13 0.13 57 1013.8
20260905224007 31 90 14.5 33.8 0.00 0.13 0.13 56 1013.6
20260905223508 31 113 11.3 22.5 0.00 0.13 0.13 57 1013.5
20260905223014 31 101 6.4 19.3 0.00 0.13 0.13 59 1013.3
20260905222511 31 99 9.7 17.7 0.00 0.13 0.13 58 1013.2
20260905222008 31 66 4.8 17.7 0.00 0.13 0.13 57 1013.2
20260905221526 31 88 6.4 19.3 0.00 0.13 0.13 56 1013.3
20260905221008 32 57 6.4 19.3 0.00 0.13 0.13 56 1013.2
20260905220508 32 98 8.0 19.3 0.00 0.13 0.13 56 1013.0
20260905220011 32 60 8.0 33.8 0.00 0.13 0.13 57 1012.9
20260905215507 32 60 11.3 33.8 0.03 0.13 0.13 55 1012.9
20260905215007 31 155 9.7 22.5 0.03 0.13 0.13 57 1012.9
20260905214510 30 115 14.5 22.5 0.08 0.13 0.13 61 1012.7
20260905214008 29 136 12.9 20.9 0.10 0.13 0.13 65 1012.8
20260905213513 28 96 9.7 19.3 0.13 0.13 0.13 68 1012.8
20260905213012 28 102 11.3 19.3 0.13 0.13 0.13 66 1013.0
20260905212518 28 74 4.8 12.9 0.13 0.13 0.13 66 1013.3
20260905212018 28 149 8.0 12.9 0.13 0.13 0.13 69 1013.4
20260905211537 28 211 4.8 14.5 0.13 0.13 0.13 69 1013.6
20260905211016 28 55 4.8 14.5 0.13 0.13 0.13 70 1013.6
20260905210518 28 78 3.2 25.7 0.13 0.13 0.13 67 1013.5
20260905210036 28 45 8.0 27.4 0.13 0.13 0.13 63 1013.4
20260905205521 30 70 12.9 27.4 0.10 0.10 0.10 61 1013.6
20260905205019 30 146 11.3 22.5 0.10 0.10 0.10 58 1013.9
20260905204535 31 24 3.2 22.5 0.05 0.05 0.05 57 1014.1
20260905204017 33 355 11.3 24.1 0.03 0.03 0.03 54 1013.9
20260905203516 34 309 12.9 27.4 0.00 0.00 0.00 51 1013.8
20260905203032 35 208 8.0 27.4 0.00 0.00 0.00 44 1014.0
20260905202517 35 101 16.1 27.4 0.00 0.00 0.00 41 1013.8
20260905202015 35 60 9.7 25.7 0.00 0.00 0.00 42 1013.8
20260905201534 35 89 9.7 24.1 0.00 0.00 0.00 41 1013.8